Wind_Speed
20 20 19 19 17 16 14 13 13 12 12 11 10 9 8 7 7 7 7 7 7 6 6 5 5 4 4 4 3 3 3 3 3 4 5 5 5 4 5 5 5 6 6 7 9 10 10 14 17 17 16 14 14 14 15 17 19 19 18 17 15 14 13 10 7 3 3 6 9 9 5 2 2 3 5 3 4 3 5 8 8 8 7 7 7 6 5 3
19 18 18 17 16 15 13 12 12 11 11 9 9 8 7 6 6 6 6 7 6 5 4 4 3 3 3 2 2 2 2 2 2 3 4 4 4 4 4 5 5 5 7 8 10 11 10 14 17 18 16 15 14 14 16 18 20 20 18 17 15 13 12 9 7 2 3 4 8 8 6 2 1 1 2 1 2 3 3 5 6 6 6 6 4 3 1 1
17 17 16 16 15 14 13 11 11 11 10 8 8 7 6 5 5 5 6 6 5 4 3 2 1 2 2 1 1 1 1 1 2 2 3 3 4 4 5 5 5 5 6 9 10 11 11 13 16 17 16 15 15 15 17 19 20 19 18 17 14 12 11 9 6 2 2 2 5 6 4 1 1 2 1 3 2 3 2 2 4 4 5 3 2 1 1 3
15 15 14 14 14 13 12 10 10 10 9 7 7 6 5 4 4 4 5 5 5 4 3 1 0 1 2 2 2 2 3 3 3 3 2 2 3 4 5 6 6 5 7 9 9 10 10 12 15 15 15 15 15 16 19 20 18 18 18 15 11 10 10 9 6 3 1 1 2 3 2 1 1 2 2 5 6 4 2 1 1 2 3 2 2 2 4 5
13 13 12 12 12 11 10 9 9 9 7 6 5 4 4 4 3 4 4 5 4 4 2 1 1 2 3 3 4 4 5 6 6 5 3 2 1 2 3 5 6 6 8 9 9 9 10 12 13 14 14 15 16 16 17 18 16 17 17 13 10 9 9 9 8 5 2 3 3 1 4 3 4 5 7 9 9 6 3 3 2 3 2 1 2 4 7 8
11 11 12 11 11 10 9 8 8 8 6 5 5 4 4 3 3 3 4 4 4 4 2 2 2 3 4 5 6 6 7 8 8 6 4 3 1 1 2 4 6 7 8 9 9 9 10 11 11 12 13 14 16 14 14 15 15 15 14 12 10 9 7 9 8 6 4 5 5 4 6 5 8 11 12 13 12 10 8 7 6 5 3 1 3 6 8 9
10 11 11 12 11 9 7 7 7 7 6 5 5 4 3 3 2 3 4 4 4 4 2 2 3 4 5 7 8 7 8 9 8 6 4 3 1 1 3 5 7 8 10 11 11 11 11 11 11 10 11 11 12 13 12 13 14 14 12 10 9 9 8 8 7 7 7 7 6 7 8 7 9 12 13 12 12 12 11 9 8 6 3 1 4 5 6 8
9 10 11 12 12 10 7 5 6 6 5 5 4 4 3 2 3 3 4 5 5 4 3 2 4 5 7 9 9 8 8 8 6 5 3 2 2 2 4 7 9 11 12 14 14 14 12 11 11 11 11 8 9 10 10 13 13 12 10 8 8 10 10 9 10 9 8 6 7 10 10 9 9 11 13 12 12 12 10 9 8 6 2 2 3 2 3 6
9 10 11 12 12 11 8 5 5 5 5 5 4 3 2 2 3 3 4 5 5 4 3 3 4 6 9 11 10 9 7 6 4 3 1 2 3 4 5 9 12 13 14 14 14 13 11 10 9 10 11 7 8 9 9 12 11 10 8 8 8 10 11 11 10 9 7 5 6 8 9 9 10 12 15 14 14 13 10 9 9 6 2 2 3 2 2 3
8 9 11 12 12 11 9 6 5 4 4 4 4 3 3 3 3 4 5 5 5 4 4 4 5 8 11 11 9 8 6 4 2 3 2 3 5 5 8 13 15 15 14 14 13 10 9 10 8 8 9 6 8 8 8 12 10 8 8 9 8 9 10 11 11 10 7 5 5 5 5 8 11 14 15 14 16 15 12 11 9 6 4 4 5 5 3 4
7 9 11 12 12 12 10 7 5 4 4 4 4 4 4 4 4 4 5 5 5 5 6 7 9 10 11 10 8 7 5 2 1 1 2 4 5 8 12 16 16 15 14 13 12 9 8 9 7 6 7 6 6 6 6 10 9 7 7 8 8 8 9 10 12 10 7 6 5 7 8 10 13 15 14 13 15 15 14 12 10 8 7 7 7 7 6 6
7 8 10 11 12 12 11 8 6 4 4 4 4 4 5 4 4 4 5 5 6 7 9 11 12 12 11 10 9 8 5 3 2 3 3 4 7 13 18 19 17 16 14 12 10 8 7 7 7 5 4 5 5 4 5 7 8 7 7 9 9 10 9 8 10 10 7 6 7 9 12 14 15 14 13 13 14 14 14 13 12 10 9 10 9 9 9 8
6 7 8 10 10 11 11 9 6 5 4 4 4 4 4 4 3 4 5 6 7 9 13 14 14 13 12 12 11 9 8 7 7 8 8 9 14 19 20 20 17 14 12 10 8 6 4 5 7 4 2 4 5 4 5 6 8 7 8 10 10 10 8 6 8 9 8 8 9 11 14 17 15 14 14 15 14 14 16 14 12 12 11 11 11 11 11 9
6 7 8 8 8 9 10 9 7 5 5 5 4 4 4 3 3 4 6 7 8 11 14 14 13 13 13 13 12 11 11 11 11 12 12 15 20 19 17 16 13 10 9 8 6 3 1 4 6 4 3 5 6 7 7 7 8 7 8 9 10 10 8 5 7 10 9 10 11 12 15 18 14 14 16 16 15 15 16 15 13 13 12 12 11 11 12 11
6 6 7 8 8 8 9 8 7 6 6 5 5 5 4 4 5 6 7 9 10 13 14 13 13 14 14 13 13 12 12 12 13 13 15 18 19 14 11 11 9 6 6 6 4 3 3 4 6 6 8 9 9 10 11 11 10 9 9 8 9 10 8 7 7 8 8 9 10 11 15 17 15 15 16 15 16 16 16 16 15 14 14 13 13 12 13 13
6 7 7 8 8 8 8 8 7 7 7 8 9 8 6 6 7 8 9 10 11 13 13 12 12 13 14 14 14 13 13 13 14 14 15 17 15 10 8 9 8 6 6 6 5 5 5 5 6 8 9 9 10 13 14 14 12 9 9 9 9 9 9 8 7 5 4 4 6 8 13 16 16 16 16 14 14 15 16 16 16 16 16 15 14 14 14 15
7 8 8 8 8 8 9 9 9 9 9 11 11 10 8 8 9 10 11 11 13 13 12 12 12 12 13 13 13 14 14 13 13 14 14 15 12 8 7 7 7 6 5 5 6 6 7 7 7 7 8 9 10 13 13 14 13 10 8 9 9 9 10 9 6 5 4 6 7 9 11 13 14 15 17 16 15 15 16 15 16 17 18 17 17 16 15 16
8 9 8 8 9 9 10 10 11 11 10 10 11 9 8 10 12 14 15 14 13 13 12 12 11 11 12 13 13 13 14 13 12 13 13 12 10 8 7 7 6 6 5 3 5 5 5 6 5 6 7 9 10 11 12 12 11 9 8 9 9 9 11 11 9 7 9 11 11 12 12 12 13 14 17 19 18 19 19 16 16 17 19 19 19 19 17 17
8 9 9 9 10 11 11 11 11 11 10 9 9 10 10 12 15 16 16 15 13 13 13 13 12 12 11 12 13 13 13 13 11 11 11 10 9 7 7 7 6 6 4 2 2 1 3 3 4 8 9 11 10 9 12 11 10 9 8 8 9 11 12 12 11 10 11 15 14 13 14 14 14 16 16 19 21 23 22 19 18 17 18 20 21 20 20 18
9 10 10 10 11 11 12 11 11 10 9 9 9 11 12 14 16 17 16 15 14 14 13 13 13 12 11 10 10 11 11 11 10 8 8 8 7 6 6 6 6 5 4 4 3 4 6 6 7 11 12 11 8 6 10 11 12 13 13 13 13 15 16 13 11 9 10 14 14 12 14 15 15 17 15 18 21 22 23 23 21 18 16 18 20 21 22 19
10 11 11 11 11 11 12 11 11 9 9 9 9 10 12 13 15 16 15 14 13 12 12 12 12 11 10 8 7 9 9 9 10 8 7 7 6 6 7 6 6 7 7 6 6 8 10 10 10 12 12 9 6 5 9 11 12 14 15 16 16 17 18 13 9 7 7 10 13 13 16 18 17 17 14 15 20 20 22 24 22 19 16 17 18 21 23 20
11 11 11 11 12 12 13 12 11 9 9 9 8 9 11 13 15 15 14 13 11 10 10 9 9 8 8 7 6 7 8 9 10 9 7 6 7 6 6 7 8 8 8 8 8 10 11 10 10 12 14 11 6 3 6 11 13 14 14 16 17 18 17 12 7 6 6 9 14 16 18 20 19 17 13 10 15 18 20 22 21 20 19 18 17 18 22 22
11 12 12 11 12 13 13 12 11 10 9 9 8 9 11 13 14 13 12 12 10 9 8 7 7 7 8 8 7 8 9 10 9 9 7 6 6 6 6 8 8 9 10 10 10 11 11 10 12 14 14 12 8 6 4 5 9 11 12 14 15 15 14 11 9 7 8 11 15 18 19 21 20 17 12 8 9 13 16 18 21 22 21 20 19 19 22 24
12 12 11 11 12 12 12 12 11 10 10 10 10 11 11 12 13 11 11 11 10 8 8 8 8 7 8 9 9 9 9 9 7 7 7 6 5 5 6 8 8 10 11 10 10 10 8 10 14 14 13 11 10 9 9 6 4 5 6 9 12 11 10 10 10 9 10 10 12 15 18 17 14 12 10 8 7 10 12 16 19 21 22 22 23 23 24 26
12 12 11 11 11 12 12 11 11 11 11 12 12 13 13 13 12 11 11 11 10 9 7 6 7 7 9 9 9 9 8 7 6 5 5 6 6 5 7 8 7 9 9 9 9 7 6 11 15 14 13 12 10 10 9 9 9 8 6 7 8 8 8 9 10 10 10 8 7 10 11 8 8 8 8 8 8 10 13 17 20 22 23 23 24 25 26 28
11 12 11 11 11 11 12 11 11 12 12 12 13 14 14 14 13 12 12 12 10 10 10 8 8 8 8 9 8 8 7 6 6 4 3 5 6 6 7 8 8 8 8 9 8 5 6 11 14 14 14 13 13 11 10 10 10 8 6 6 6 7 9 10 11 12 10 7 7 9 5 5 11 12 9 9 10 10 13 16 20 24 25 24 25 26 27 29
10 11 11 11 11 11 11 11 11 12 12 12 13 14 14 14 12 8 7 7 8 10 10 10 11 9 8 8 7 6 6 5 3 3 3 5 6 6 8 8 9 8 9 11 8 6 9 11 13 14 15 15 14 12 11 10 10 8 6 5 6 8 9 10 12 11 11 11 11 10 7 8 11 12 12 11 10 8 10 12 17 25 27 27 27 27 27 29
8 9 10 11 10 10 10 10 11 11 10 11 11 11 11 9 6 2 2 3 5 8 9 8 9 9 8 7 6 7 7 5 4 4 5 7 6 8 10 9 9 9 10 11 8 8 11 12 14 15 15 13 11 10 9 8 9 9 8 9 10 11 10 10 11 11 11 11 9 7 6 6 8 11 14 12 8 5 4 5 9 17 24 27 28 27 28 29
8 8 9 9 10 9 9 9 9 8 7 8 7 7 6 4 2 2 4 4 4 7 9 7 6 6 6 4 4 7 6 5 7 7 7 8 8 9 10 10 10 10 10 10 9 9 11 13 15 14 12 9 7 8 8 9 9 8 9 10 10 10 11 10 10 11 11 9 9 8 8 6 7 10 11 10 6 3 2 2 1 4 10 17 22 23 25 28
7 7 8 8 8 8 8 7 7 6 5 5 5 5 4 3 2 2 4 3 5 8 8 7 5 4 3 2 3 4 3 4 6 6 7 8 9 10 10 10 9 9 9 9 8 9 12 12 11 9 8 8 9 10 11 12 12 10 10 11 10 9 11 11 12 12 8 6 10 12 11 9 4 4 7 6 4 2 3 3 2 3 3 5 10 16 20 24
7 7 7 7 7 7 7 6 6 5 4 3 4 5 4 3 2 3 3 1 5 7 7 8 7 4 1 1 3 2 2 4 5 6 7 7 9 9 8 8 8 8 9 9 8 11 11 7 6 8 9 10 10 11 13 14 13 11 12 13 10 8 8 9 9 8 5 4 6 7 8 9 5 0 1 2 3 4 5 4 4 5 5 6 7 9 14 19
7 7 7 7 7 7 6 5 5 4 3 4 4 5 5 4 4 6 4 1 3 6 7 8 8 5 2 2 3 3 3 5 6 8 9 10 10 10 9 10 11 10 10 10 12 14 10 3 4 10 12 13 15 17 17 15 14 13 13 13 10 6 4 4 3 4 4 2 3 5 4 5 5 0 3 3 4 5 6 7 7 6 4 6 7 7 10 13
7 7 6 6 5 5 5 4 4 3 3 4 4 5 6 3 4 7 6 4 4 5 6 6 6 5 2 0 4 6 5 5 7 8 9 9 9 11 11 12 13 12 11 12 14 14 10 5 6 12 14 16 20 21 17 17 17 16 12 9 5 2 2 3 2 1 2 2 1 0 1 3 4 2 2 1 6 9 10 11 12 10 7 6 7 8 9 11
7 6 5 5 4 4 5 4 4 4 3 4 4 5 5 3 5 6 6 5 4 4 4 3 4 4 4 3 5 6 6 6 7 6 6 6 6 8 10 10 11 11 11 12 13 15 9 5 11 18 16 15 18 16 14 16 15 11 9 8 4 3 4 2 1 1 2 5 7 4 2 3 1 2 4 4 10 13 15 16 15 14 11 9 8 9 11 13
6 6 5 3 3 4 5 5 6 5 3 4 5 6 5 6 7 5 5 3 2 3 2 2 1 2 3 5 6 6 6 6 6 5 6 6 7 9 10 11 11 12 13 12 13 13 7 4 12 15 11 14 17 14 13 12 9 6 7 7 5 3 6 4 2 4 4 5 5 4 4 4 1 3 5 6 10 13 16 17 16 15 13 12 10 9 9 12
6 5 4 2 4 5 6 6 6 5 6 4 5 6 7 8 7 5 4 2 1 0 1 1 2 3 1 2 3 5 5 4 4 4 5 5 5 7 8 9 11 12 13 13 12 11 8 9 13 9 8 17 20 13 11 9 6 5 5 4 4 2 5 4 2 3 3 2 2 4 5 3 3 6 6 4 5 7 9 10 11 11 11 12 13 12 11 12
6 4 3 3 4 5 6 7 6 8 10 4 5 9 11 8 6 4 2 1 0 1 2 3 3 3 2 2 4 5 4 3 4 4 4 4 4 5 6 6 8 9 12 13 11 10 12 14 13 9 12 21 19 8 4 6 5 4 3 4 4 1 4 5 2 1 0 1 2 4 5 5 5 6 7 7 6 5 5 7 9 10 10 12 13 15 15 15
5 4 3 2 3 5 6 7 8 12 10 2 9 14 13 9 7 3 1 2 2 3 3 3 2 3 4 6 7 7 6 5 4 4 4 4 4 4 5 4 6 8 10 13 12 12 15 13 10 13 18 19 11 2 3 8 10 7 5 4 3 1 2 3 3 1 1 1 2 2 2 4 3 2 3 6 7 7 8 7 7 9 11 13 14 16 17 18
4 3 2 2 4 5 5 6 9 12 8 6 13 15 12 10 9 5 3 3 3 3 3 3 2 3 6 7 6 6 7 5 4 4 4 2 2 5 7 5 6 7 10 14 13 13 15 11 10 16 18 11 6 7 11 12 11 8 6 6 5 2 1 2 3 1 1 1 1 2 2 1 1 4 7 7 10 11 12 11 8 8 10 12 13 14 15 16
3 2 2 2 4 4 5 7 9 9 8 11 14 13 10 9 7 6 6 3 2 2 3 3 3 4 5 6 5 5 6 5 4 3 3 3 3 5 7 7 8 9 11 15 15 15 15 10 11 17 14 7 8 13 17 15 11 10 10 10 10 7 4 2 2 1 1 1 1 0 2 1 2 7 8 9 12 13 14 14 13 11 11 12 12 13 14 15
3 1 1 3 5 5 6 7 8 7 10 14 13 11 10 8 6 7 8 6 4 4 4 5 4 4 5 5 5 4 5 5 4 3 3 3 5 5 7 10 12 12 13 15 16 16 14 10 13 15 13 11 8 10 16 17 13 11 13 13 14 11 6 3 1 1 2 2 1 1 1 2 4 7 8 8 10 12 15 17 16 14 14 14 15 15 14 13
2 1 1 3 4 4 5 6 6 7 10 12 11 10 8 7 7 8 8 8 7 7 8 7 6 6 6 6 5 5 5 5 5 5 4 5 6 7 9 13 14 15 16 14 13 15 12 10 13 13 9 9 8 7 12 17 15 11 11 13 14 11 7 2 1 3 4 4 5 3 1 3 4 5 7 11 14 17 20 20 19 17 15 15 17 19 19 17
3 1 1 2 3 3 4 4 4 5 8 10 10 10 9 7 6 6 6 7 7 8 9 8 7 8 8 8 8 8 6 4 4 5 6 7 8 9 12 15 16 16 14 9 9 11 9 9 13 12 7 6 7 6 9 14 15 13 13 15 14 12 8 3 2 4 5 4 5 3 1 3 5 7 12 18 20 21 22 21 20 17 16 16 18 19 20 21
3 3 2 1 1 2 3 3 3 4 7 9 9 9 9 8 7 6 6 7 8 9 9 8 9 9 9 9 10 9 7 4 3 5 6 7 9 11 13 13 12 9 7 6 6 7 6 9 11 10 7 5 4 5 8 13 16 14 15 15 14 12 9 4 3 4 4 2 3 2 2 5 11 15 18 19 19 19 18 18 18 16 15 15 17 19 18 19
3 3 3 2 1 1 2 2 4 5 8 9 8 8 8 7 8 8 8 8 8 9 9 8 9 9 9 9 9 8 7 5 3 5 6 8 10 9 7 6 6 5 5 5 7 7 7 9 10 7 4 3 3 5 10 14 15 14 14 14 12 12 9 5 4 3 3 4 6 5 5 10 15 16 16 16 16 15 13 13 14 14 14 14 15 18 19 20
3 3 3 2 0 3 4 4 6 6 7 8 8 8 8 8 8 9 9 9 8 8 8 8 9 8 8 6 6 7 7 6 5 5 7 9 7 6 7 8 9 7 6 5 7 9 9 9 10 8 6 5 5 7 8 10 12 13 13 12 11 10 8 7 6 4 5 6 8 7 9 12 13 14 17 19 19 18 14 12 12 12 12 12 12 14 18 21
4 4 3 2 1 3 3 4 6 5 5 6 6 8 9 8 8 8 8 8 8 9 8 8 7 6 5 5 6 7 7 6 5 4 5 4 5 7 7 8 8 6 5 5 6 8 9 9 10 10 8 6 4 3 3 6 9 11 11 9 10 11 11 10 9 7 6 5 6 8 11 11 13 16 19 21 22 21 18 15 14 14 14 13 12 11 13 16
5 5 5 4 2 3 4 4 5 5 5 5 6 8 9 8 8 8 8 8 8 9 8 7 6 6 6 7 8 9 8 6 5 5 5 6 7 6 5 5 5 5 6 6 6 6 7 9 9 9 7 5 3 2 4 5 6 8 7 7 9 11 11 12 11 9 8 7 7 10 11 11 13 16 18 19 20 21 21 18 16 16 17 16 13 11 12 13
6 5 5 5 4 4 4 4 5 5 4 5 6 8 9 9 8 8 8 8 9 9 7 6 7 7 7 8 9 9 8 7 7 8 7 6 5 3 2 1 3 6 8 8 5 4 5 7 8 8 6 4 5 6 4 6 8 8 8 7 7 9 11 12 11 8 7 6 6 8 10 10 13 15 16 17 17 17 19 17 15 15 17 17 15 14 13 14
6 6 5 5 4 4 4 4 4 4 4 5 6 8 9 9 8 8 9 9 9 8 8 7 7 8 8 9 8 8 7 6 7 7 5 4 2 1 0 2 4 6 6 4 2 3 5 6 7 6 4 5 8 5 6 11 11 11 11 8 5 6 8 10 11 10 8 8 7 9 11 11 12 14 15 15 15 14 15 14 13 14 15 16 16 15 16 16
7 6 5 5 4 4 4 3 3 4 4 5 6 7 8 8 9 8 8 9 9 8 7 7 8 8 9 9 8 7 6 6 6 5 4 3 2 1 2 3 4 3 2 2 3 5 7 6 7 6 4 5 8 3 11 11 8 8 12 12 9 8 8 7 8 9 11 12 12 13 15 15 15 16 15 14 14 14 14 15 14 14 14 14 14 14 15 15
7 7 6 6 5 4 5 3 2 3 4 4 4 6 7 8 9 8 8 9 9 8 6 6 7 9 10 10 8 7 5 4 3 3 3 4 4 4 4 4 4 3 2 3 4 5 7 7 7 6 4 6 6 4 11 7 2 2 9 14 12 11 10 7 4 4 8 13 15 15 16 16 16 17 15 14 14 15 15 15 15 16 16 15 15 15 13 12
Wind_Direction
304 303 302 302 303 306 306 306 308 309 306 306 305 304 307 307 310 315 317 317 313 302 289 276 268 267 267 268 271 272 265 254 241 232 223 222 224 215 204 188 182 188 193 205 198 190 193 197 199 202 202 201 200 197 194 192 194 199 203 210 211 204 197 181 163 151 88 78 57 44 51 36 289 183 174 185 152 164 210 187 183 195 202 201 194 192 190 210
309 307 306 303 302 303 306 308 310 311 309 307 304 300 300 301 308 318 324 325 321 311 294 278 267 256 257 255 255 254 247 244 234 233 222 214 213 206 204 193 184 180 184 195 194 188 186 193 197 198 198 197 197 194 190 192 196 200 206 214 211 197 188 176 166 137 44 68 71 50 22 11 319 269 193 254 138 158 215 213 216 214 203 199 175 165 179 275
315 313 310 307 304 302 305 308 311 315 314 310 302 296 295 295 306 323 331 332 328 321 302 284 262 236 227 207 213 210 200 197 187 202 204 205 202 192 197 192 185 179 184 193 194 190 184 189 194 195 195 194 196 191 188 193 198 204 212 218 213 202 195 183 170 147 29 47 88 65 28 18 319 323 334 346 323 224 243 258 247 216 183 169 127 96 11 322
322 319 315 312 308 304 305 308 311 318 320 314 305 299 296 296 312 331 339 340 338 330 322 330 175 183 160 154 158 147 144 138 139 147 153 184 192 183 187 183 175 177 191 197 196 192 181 181 189 192 192 193 195 190 188 193 199 211 219 222 218 215 206 185 179 185 310 317 135 85 12 294 253 300 322 341 323 272 266 338 291 153 139 110 77 18 337 328
329 327 327 325 319 310 309 311 313 322 328 323 320 313 303 304 323 339 346 349 349 343 349 42 91 124 135 133 137 138 133 124 120 119 114 116 156 179 182 174 167 177 193 194 192 184 171 174 183 187 190 194 195 191 191 196 205 216 222 229 226 227 212 185 195 201 211 240 194 244 311 279 251 280 308 322 315 294 282 265 220 153 132 95 12 338 334 339
339 342 346 346 337 322 315 316 318 330 338 337 339 333 314 315 333 351 357 0 2 358 11 60 91 121 127 126 133 135 132 130 126 118 110 104 101 183 184 169 166 179 186 179 175 165 160 167 172 181 188 193 197 195 197 203 216 225 229 234 232 239 213 178 194 199 205 220 206 256 286 265 268 288 303 311 305 287 274 258 227 192 164 104 347 341 346 351
352 359 3 1 353 340 326 321 325 338 349 350 350 344 327 329 354 5 7 10 15 17 28 66 99 119 118 125 132 130 132 134 133 129 123 124 137 202 186 169 167 176 172 160 153 144 142 148 151 163 173 182 196 200 207 213 226 235 231 228 236 246 214 188 210 207 206 215 217 253 262 257 275 292 295 295 290 275 261 244 223 203 168 8 342 353 9 15
7 11 11 7 2 356 343 327 329 345 359 0 357 353 345 357 23 21 15 19 25 32 43 74 102 117 120 129 131 122 126 131 135 141 140 175 212 215 185 165 163 168 162 148 138 128 129 137 141 150 152 160 182 188 205 213 225 235 228 230 244 242 226 233 242 212 206 229 241 244 239 242 259 274 276 274 270 261 243 225 213 200 181 333 333 355 30 36
17 18 16 12 9 8 1 343 337 351 7 11 5 5 15 26 39 35 24 28 33 43 62 81 101 119 122 130 133 125 123 124 142 163 185 241 239 223 181 158 158 164 157 143 133 129 136 143 142 155 156 151 167 175 195 201 213 230 237 257 246 231 235 246 239 214 216 234 233 228 224 237 248 256 260 261 262 251 225 210 205 199 217 286 280 273 337 18
27 27 23 20 19 17 16 9 3 8 17 20 15 22 49 46 48 47 35 38 43 52 71 82 99 117 124 128 127 126 125 105 129 185 228 256 239 210 171 152 153 159 154 143 138 134 148 153 145 161 167 159 168 179 194 197 210 233 249 262 242 231 242 245 233 223 225 209 208 233 237 245 251 257 259 261 263 250 224 209 211 218 229 254 261 264 293 326
38 35 32 29 27 25 25 27 30 32 27 26 25 42 63 56 54 55 45 48 54 62 80 93 101 107 119 120 104 110 125 73 30 187 228 250 220 180 154 145 149 154 151 147 143 132 143 158 157 163 172 179 182 187 200 207 220 243 265 267 259 261 262 252 240 229 223 214 239 258 249 247 251 259 266 267 263 251 234 222 224 229 228 242 257 266 281 303
49 44 37 32 29 27 29 33 41 45 38 36 37 51 66 62 58 57 50 58 66 80 95 102 103 102 106 103 92 99 108 88 83 127 153 182 171 154 146 145 150 152 146 144 144 137 143 161 167 165 179 197 197 202 217 230 240 258 276 274 278 281 274 259 240 233 234 239 252 248 242 247 250 257 268 267 259 250 241 233 230 230 231 241 254 266 273 289
60 50 37 31 26 27 29 33 42 50 50 54 51 54 67 67 62 57 58 69 80 98 106 105 103 100 97 96 96 96 97 104 110 114 128 146 148 145 146 150 151 149 142 140 139 135 148 172 180 185 211 212 215 226 226 240 251 255 267 273 278 277 274 260 237 242 246 242 245 238 243 254 258 266 269 266 262 251 244 241 235 234 239 245 253 265 269 276
66 55 38 31 28 27 30 32 40 53 61 63 57 56 64 71 72 67 72 80 93 112 115 107 102 95 90 96 99 94 95 100 107 116 131 144 146 144 146 151 147 145 145 143 139 137 189 210 205 215 253 248 249 251 245 252 255 252 261 271 271 267 268 257 246 256 254 248 248 243 253 263 268 273 271 270 269 257 248 246 243 241 244 248 253 263 267 269
71 59 44 38 36 35 34 32 36 47 57 57 50 51 61 76 81 78 81 90 107 123 120 108 101 92 89 99 102 99 99 100 108 123 138 145 144 139 141 150 145 143 157 159 167 196 238 244 235 246 262 265 268 265 256 255 257 258 265 266 260 256 253 244 246 256 255 257 256 248 259 271 274 275 276 275 269 262 253 247 245 246 249 252 254 260 263 264
72 65 55 50 46 44 39 35 33 37 48 51 45 47 68 83 84 82 85 95 112 124 118 101 96 93 92 99 100 101 103 107 113 124 141 147 141 132 134 152 158 158 168 182 200 216 240 263 266 269 273 273 274 272 263 258 256 255 262 261 254 254 258 254 239 231 254 277 279 263 264 275 280 280 281 276 266 262 255 246 244 247 251 254 255 257 258 262
75 73 69 62 56 51 43 37 36 39 49 53 48 52 76 86 84 85 87 95 108 117 108 91 88 89 92 97 97 100 105 114 120 122 138 149 144 134 132 150 170 173 176 201 220 229 249 269 293 303 301 296 287 277 266 257 251 247 253 259 260 265 270 271 246 229 278 306 310 291 274 277 284 282 279 274 265 260 257 249 245 248 252 254 254 253 254 258
78 81 79 72 64 54 43 41 46 52 56 56 53 61 84 91 89 89 91 97 104 107 97 84 85 86 86 92 94 95 99 106 117 121 127 137 140 133 127 137 159 173 179 205 212 221 255 267 294 312 317 318 303 275 253 245 246 248 249 253 266 273 270 277 271 262 283 292 294 291 284 288 296 291 278 269 262 259 262 259 251 254 256 255 254 251 251 252
79 85 84 77 69 58 50 51 57 64 63 59 64 81 97 100 97 96 98 101 103 100 91 83 84 84 84 91 91 90 91 95 105 115 117 121 127 119 120 132 136 147 143 111 154 232 298 271 294 320 329 331 321 278 247 239 243 251 255 263 280 287 280 283 281 275 288 288 281 282 287 292 301 303 283 262 256 256 260 258 251 255 255 252 252 251 250 249
78 86 86 80 71 63 59 59 64 71 69 69 82 100 109 106 104 104 104 105 103 96 89 84 82 84 90 90 83 79 85 95 97 100 104 105 106 101 106 118 108 89 61 53 48 355 334 322 332 340 335 326 319 283 248 243 249 255 266 276 287 293 289 290 287 281 290 290 283 286 295 295 299 309 292 256 249 251 251 249 249 253 254 250 250 251 251 246
78 85 85 81 74 67 65 64 69 75 73 73 84 103 115 115 113 111 108 106 103 96 93 88 82 85 91 81 69 63 69 84 86 85 91 81 77 90 90 74 54 38 24 20 9 351 346 351 357 355 350 339 318 265 241 246 256 264 274 281 286 292 292 293 295 291 294 292 291 297 301 300 298 307 302 254 241 243 240 241 246 254 259 253 249 251 250 244
80 84 84 82 78 74 70 69 72 78 81 82 87 109 123 124 123 118 110 105 102 100 102 93 79 79 77 70 66 56 59 73 73 71 74 60 52 65 64 35 25 26 13 1 350 346 359 17 18 5 2 3 350 292 245 246 255 265 273 281 285 289 293 294 301 307 307 299 297 299 299 300 298 300 308 275 245 243 240 242 249 259 268 264 255 253 250 243
84 86 85 84 83 80 77 75 77 83 91 98 106 120 128 130 130 122 109 104 101 104 107 93 77 75 75 76 76 69 74 78 65 56 52 37 30 36 28 12 12 17 9 358 348 351 6 20 14 2 1 9 20 27 3 269 259 264 270 280 285 291 297 296 301 303 298 298 298 300 300 301 299 293 306 317 265 249 248 250 254 260 267 266 261 259 252 246
89 88 88 87 86 85 83 81 85 94 103 109 112 118 125 132 134 125 112 102 94 101 107 92 73 68 79 86 90 91 88 79 64 57 47 30 28 28 11 4 3 6 7 360 354 359 6 3 358 352 349 3 23 29 27 18 348 317 300 298 291 290 299 299 308 308 297 296 295 304 306 303 304 298 307 323 285 261 256 253 254 256 259 260 256 253 250 247
94 93 91 89 87 89 88 88 95 106 116 118 117 118 120 129 134 127 115 96 83 88 91 82 63 63 81 85 93 102 91 74 68 65 48 32 36 29 8 0 352 356 357 350 354 6 1 348 343 338 336 343 356 3 14 15 5 2 356 331 301 294 309 310 318 321 311 303 299 314 318 313 324 325 320 318 295 278 264 255 253 252 253 255 254 251 247 245
99 98 96 92 89 90 91 96 104 111 121 124 124 124 122 126 127 118 105 88 74 72 68 64 60 69 85 82 90 101 84 71 66 57 42 28 30 19 3 353 343 345 345 340 347 353 348 342 331 330 334 331 331 337 347 351 349 357 358 340 317 309 316 311 312 317 314 309 310 317 311 295 309 314 316 319 310 291 266 256 254 251 250 250 252 252 248 246
103 102 99 97 91 90 94 103 112 115 120 125 128 129 127 129 124 108 94 79 56 51 52 52 56 68 88 85 80 78 67 62 48 24 7 4 2 350 344 340 335 333 332 335 341 338 338 336 327 328 329 325 325 327 332 334 328 327 320 307 301 305 310 305 303 306 305 302 303 303 292 286 297 304 310 313 314 300 268 255 251 248 247 246 248 251 250 249
103 102 99 98 94 93 98 107 119 123 122 125 130 134 137 138 124 60 54 71 35 32 38 43 55 68 82 78 50 46 56 53 30 11 354 352 345 336 331 331 334 325 317 324 333 336 334 333 331 328 323 326 339 339 333 326 309 295 285 283 286 290 290 289 294 295 294 291 286 285 279 275 286 295 302 306 313 321 293 262 247 243 244 246 248 251 252 251
103 101 99 99 94 93 96 104 118 125 128 132 135 143 152 154 133 49 64 70 30 31 34 37 65 75 71 63 39 52 63 40 26 11 342 334 328 325 323 324 328 319 311 318 325 330 334 338 334 324 319 334 354 344 329 323 309 284 273 276 275 278 277 276 283 282 279 270 258 263 256 248 280 283 277 286 300 329 33 56 70 236 240 242 246 250 253 253
106 105 103 101 95 94 94 99 109 114 129 148 150 154 159 159 152 77 72 51 27 38 34 34 65 80 71 55 46 60 53 15 17 2 337 328 321 318 313 308 310 309 309 311 316 335 343 338 331 326 327 335 335 329 326 323 315 300 286 277 271 276 274 269 267 262 259 255 250 253 242 228 256 273 246 263 293 346 23 29 17 348 297 261 252 250 249 250
110 109 108 106 100 96 94 96 106 105 113 147 163 170 167 159 130 85 89 48 27 44 48 46 56 66 83 60 54 66 36 8 2 350 343 336 325 319 313 311 310 306 306 302 313 339 347 336 341 355 342 323 314 314 321 322 319 309 291 283 296 307 284 268 256 234 230 262 240 219 206 203 208 3 26 1 13 22 17 11 358 339 311 299 287 267 255 249
114 114 112 109 98 93 91 92 101 101 111 130 140 155 155 131 84 69 72 55 36 46 49 47 50 57 76 91 71 62 43 24 13 6 4 2 358 3 12 9 0 348 336 330 327 336 348 357 3 353 337 328 329 324 320 320 325 321 301 293 313 342 326 281 243 207 227 254 176 155 153 191 212 289 71 56 8 347 343 344 347 350 319 287 276 263 259 253
115 116 117 107 93 91 88 87 94 106 139 155 150 163 169 135 72 67 63 70 66 44 39 41 41 36 18 100 66 46 36 34 29 22 17 19 25 33 33 25 20 14 1 352 347 349 356 354 343 344 338 336 338 339 339 336 336 337 329 322 328 59 39 306 271 279 284 298 336 100 301 250 235 223 187 268 333 325 323 325 326 328 320 295 277 266 263 258
119 121 118 103 90 81 69 66 76 85 122 156 154 175 178 122 95 90 77 80 76 48 42 49 31 0 347 23 48 35 32 42 38 21 9 12 23 31 30 23 19 14 1 359 1 2 3 351 348 353 352 344 340 347 355 349 344 349 356 353 341 187 182 203 241 304 300 308 311 298 295 306 288 177 211 292 319 311 307 307 305 305 302 292 282 275 269 264
127 125 114 97 79 62 52 53 63 69 90 136 151 170 154 112 107 106 96 100 98 67 48 41 343 317 8 51 44 22 25 40 37 13 4 12 20 27 28 22 17 10 6 7 3 358 360 351 349 350 351 348 346 349 349 348 354 355 349 352 348 231 207 201 233 279 294 316 305 255 265 315 342 199 225 275 293 286 286 289 289 289 284 274 260 249 249 254
132 125 113 91 61 45 42 46 51 62 68 89 152 147 120 112 116 116 113 114 145 110 354 308 260 279 350 75 33 12 18 27 18 9 18 26 32 36 30 21 17 10 7 10 7 359 343 332 342 340 327 340 346 349 349 353 359 346 346 2 6 285 238 240 262 277 289 322 269 232 241 245 204 216 226 249 281 278 274 280 287 287 278 266 252 240 236 236
142 135 122 98 56 31 34 39 33 43 46 52 155 119 103 109 119 125 118 50 248 256 306 302 281 303 339 328 321 324 330 348 349 0 14 356 356 27 30 25 18 7 5 8 7 357 337 332 346 348 329 337 344 344 358 24 31 25 39 16 351 286 236 237 232 289 38 207 241 225 212 198 195 220 232 242 263 285 298 299 299 298 291 280 270 262 254 246
155 140 108 83 39 23 31 35 36 36 31 85 132 103 94 97 93 93 26 328 285 285 315 323 307 316 334 335 325 311 304 316 335 345 349 343 344 352 354 11 15 2 0 360 356 351 343 336 344 348 340 340 347 3 65 51 52 56 61 31 354 258 228 217 203 235 171 199 266 253 199 169 176 238 270 269 277 294 311 312 297 294 295 292 290 284 274 264
151 123 91 44 13 23 30 29 35 31 28 106 111 96 95 94 82 66 25 318 280 295 323 343 339 322 329 338 336 322 312 314 333 327 309 317 329 317 317 328 351 352 350 350 348 348 348 338 331 347 351 352 20 57 49 41 46 56 65 64 62 65 301 226 211 215 170 197 298 326 351 107 112 1 354 336 324 320 320 317 298 283 285 287 287 282 277 273
130 104 70 37 25 33 34 27 24 21 44 87 94 94 97 88 66 46 37 21 301 314 337 4 3 345 346 356 357 341 324 318 327 312 281 276 281 291 295 295 313 332 337 338 336 339 348 344 334 350 11 38 56 57 46 33 34 40 42 47 45 38 23 337 262 260 256 224 155 125 315 296 320 333 333 328 326 322 321 319 306 289 277 272 271 266 265 267
132 104 46 56 53 42 24 12 5 17 55 76 83 87 82 68 51 43 50 57 47 31 39 45 40 23 10 8 6 352 333 313 303 298 276 262 271 279 288 294 305 316 320 324 327 334 346 352 349 1 30 49 54 64 49 36 33 33 33 33 28 20 12 2 1 4 312 271 238 231 274 284 299 306 308 320 326 320 316 313 304 292 280 266 259 255 254 256
165 159 15 47 58 46 18 5 11 36 61 76 81 80 72 63 61 54 52 50 42 46 52 54 54 39 21 13 9 5 345 307 285 284 274 268 279 285 289 297 303 310 316 322 329 335 344 359 5 13 38 47 46 62 47 34 26 22 25 24 18 16 13 351 297 325 319 305 303 303 280 283 286 291 304 317 321 316 312 308 300 289 281 272 262 256 253 252
201 233 309 5 47 50 28 23 42 66 79 84 82 81 77 74 75 70 56 42 37 49 54 53 49 36 25 20 10 2 351 317 282 277 279 282 288 287 287 295 302 309 318 328 337 340 349 6 10 15 34 46 41 43 33 21 16 14 14 11 9 15 17 354 305 323 314 305 313 314 222 289 304 315 314 313 314 310 305 302 300 292 282 274 268 264 261 259
208 246 282 306 9 40 32 38 79 97 91 89 88 85 82 77 78 75 56 39 40 47 45 40 36 27 23 19 6 359 3 351 302 299 304 303 304 303 303 307 313 322 335 351 357 1 9 11 10 12 18 27 31 27 8 1 6 9 6 7 10 16 19 25 35 353 309 301 322 291 231 303 314 314 311 308 309 308 301 295 296 295 288 275 264 262 264 264
200 243 274 298 319 74 93 104 119 103 85 88 91 87 80 69 62 58 43 33 36 41 36 26 21 17 13 8 3 7 21 23 340 323 329 325 324 332 343 359 22 35 36 30 26 29 24 15 19 21 15 358 336 339 340 343 353 0 2 7 13 16 21 40 38 346 314 343 338 310 297 310 314 316 317 319 321 319 313 303 295 293 290 283 270 262 261 263
195 230 255 285 351 125 131 121 114 103 81 80 81 76 70 56 46 44 37 32 31 31 29 17 10 10 6 7 20 25 26 29 15 347 336 336 352 39 56 54 57 59 52 38 28 27 22 14 16 18 7 343 327 329 335 337 346 359 5 10 19 26 39 54 37 350 323 323 322 335 343 331 331 339 337 336 337 335 330 322 313 307 299 294 287 277 270 264
195 205 201 212 175 137 140 112 102 102 85 72 64 59 59 50 39 37 34 30 29 28 22 11 8 12 16 31 40 33 29 31 26 2 350 16 72 82 65 50 48 43 29 19 11 14 18 14 19 28 27 13 357 342 336 342 359 12 14 22 41 52 58 59 43 16 360 336 329 1 7 349 348 351 344 342 345 346 345 342 336 334 329 320 313 303 290 275
194 185 167 173 187 165 154 124 106 105 89 69 55 51 51 43 35 35 33 30 30 27 14 6 21 37 44 45 37 30 35 46 65 80 88 97 102 88 66 51 28 357 336 333 337 354 13 17 25 42 50 49 44 6 352 20 44 47 39 40 57 63 59 53 46 39 42 35 5 4 9 358 353 353 350 350 352 352 351 347 343 343 341 335 329 319 307 299
194 182 166 169 176 161 145 121 107 101 81 62 53 49 45 37 31 30 34 33 28 24 18 22 41 53 52 45 36 32 37 55 85 102 106 104 108 109 95 25 330 320 312 311 315 337 9 20 25 40 56 47 14 1 29 79 89 78 59 51 61 66 60 50 47 53 61 50 11 358 6 6 359 356 355 356 355 353 350 346 340 340 339 335 335 332 322 319
197 189 179 175 166 150 137 115 101 95 73 54 48 45 40 35 31 31 35 36 27 27 36 46 55 57 49 44 45 45 49 74 106 121 130 126 128 153 26 339 332 323 318 326 354 357 9 22 19 26 53 35 8 21 102 109 96 75 60 54 54 59 57 45 39 41 41 32 19 8 8 8 4 0 358 357 356 352 352 353 347 340 333 327 325 325 325 326
208 200 186 178 167 153 151 137 106 88 69 53 42 38 36 34 34 34 35 38 36 39 50 55 55 55 50 47 52 58 72 106 128 140 156 159 143 99 58 34 22 18 19 38 28 5 9 14 8 12 44 31 16 88 142 132 108 69 43 36 33 29 31 31 29 32 27 18 13 8 3 359 355 354 355 358 358 355 357 1 357 349 343 337 331 320 313 316
219 213 196 186 184 175 171 161 117 81 64 52 32 26 31 32 34 35 32 36 42 47 56 57 53 55 55 50 49 60 81 102 115 134 153 149 126 98 76 62 51 49 36 6 357 1 2 0 3 16 39 29 23 154 170 171 175 29 18 21 23 18 19 24 26 37 29 17 11 4 357 349 341 340 345 351 356 359 358 356 354 352 351 352 352 342 325 310
Height
3107 3106 3105 3104 3103 3102 3102 3101 3100 3100 3099 3098 3098 3098 3098 3098 3098 3098 3097 3097 3097 3097 3097 3097 3098 3099 3099 3100 3101 3101 3101 3102 3102 3103 3103 3103 3104 3105 3105 3106 3106 3107 3108 3108 3109 3109 3110 3111 3112 3113 3115 3116 3118 3119 3121 3122 3122 3123 3124 3124 3125 3126 3127 3128 3129 3130 3131 3131 3131 3131 3132 3132 3133 3134 3134 3135 3135 3136 3137 3137 3137 3138 3139 3139 3140 3141 3141 3142
3105 3104 3103 3102 3101 3101 3100 3100 3099 3098 3098 3097 3097 3097 3097 3097 3097 3097 3097 3097 3097 3097 3097 3097 3097 3098 3099 3099 3100 3100 3101 3102 3102 3102 3103 3103 3104 3105 3105 3105 3106 3106 3107 3108 3109 3109 3110 3110 3112 3113 3115 3116 3118 3119 3120 3121 3122 3123 3124 3124 3125 3126 3127 3129 3130 3130 3130 3131 3131 3131 3132 3132 3133 3134 3135 3135 3135 3136 3136 3137 3137 3138 3138 3139 3140 3140 3141 3141
3104 3102 3102 3101 3100 3099 3099 3098 3098 3097 3097 3096 3096 3096 3096 3097 3097 3097 3097 3096 3096 3096 3096 3096 3097 3097 3098 3099 3099 3100 3101 3101 3102 3102 3103 3103 3104 3105 3105 3105 3105 3106 3107 3108 3108 3109 3109 3110 3112 3113 3115 3116 3117 3119 3120 3121 3122 3123 3123 3124 3125 3127 3128 3129 3130 3130 3131 3131 3131 3132 3132 3132 3133 3134 3135 3135 3136 3136 3136 3137 3137 3137 3138 3139 3139 3140 3140 3140
3103 3101 3100 3100 3099 3098 3098 3098 3097 3097 3096 3096 3095 3095 3096 3096 3096 3096 3096 3096 3096 3096 3096 3096 3097 3097 3098 3098 3099 3100 3100 3101 3102 3102 3103 3103 3104 3104 3105 3105 3105 3106 3106 3107 3108 3109 3109 3110 3112 3114 3115 3116 3117 3118 3119 3120 3122 3122 3123 3124 3126 3127 3128 3129 3130 3130 3131 3131 3131 3132 3133 3133 3134 3134 3135 3136 3136 3136 3136 3137 3137 3138 3138 3139 3139 3139 3140 3139
3102 3101 3100 3099 3098 3097 3097 3097 3097 3097 3096 3096 3095 3095 3095 3095 3096 3096 3096 3096 3096 3096 3096 3096 3096 3097 3097 3098 3099 3100 3101 3102 3102 3102 3103 3103 3104 3104 3104 3105 3105 3106 3107 3107 3109 3109 3110 3111 3113 3114 3116 3117 3117 3119 3120 3121 3122 3122 3123 3124 3126 3127 3127 3129 3130 3130 3130 3130 3131 3132 3133 3133 3134 3134 3135 3135 3136 3136 3137 3137 3137 3138 3138 3139 3139 3139 3139 3138
3101 3100 3099 3098 3098 3097 3096 3096 3096 3096 3096 3096 3095 3095 3095 3095 3096 3096 3096 3096 3096 3096 3096 3096 3096 3096 3097 3098 3099 3100 3101 3102 3102 3103 3103 3104 3104 3104 3104 3105 3105 3106 3107 3108 3109 3110 3111 3112 3114 3115 3116 3117 3118 3119 3121 3121 3122 3122 3123 3124 3126 3126 3127 3128 3129 3129 3130 3130 3131 3131 3132 3133 3133 3134 3134 3135 3135 3136 3137 3137 3137 3138 3138 3139 3139 3139 3138 3138
3101 3100 3099 3099 3098 3097 3096 3096 3096 3096 3096 3096 3095 3095 3095 3095 3096 3096 3096 3096 3096 3096 3096 3096 3096 3096 3097 3098 3099 3100 3101 3102 3102 3103 3104 3104 3104 3104 3105 3105 3106 3107 3108 3109 3110 3111 3112 3114 3115 3116 3117 3118 3119 3120 3121 3122 3122 3122 3123 3124 3125 3126 3126 3127 3128 3128 3129 3129 3130 3130 3130 3131 3132 3133 3134 3134 3135 3135 3136 3136 3137 3137 3138 3138 3138 3138 3138 3138
3101 3100 3100 3099 3098 3097 3096 3096 3096 3096 3096 3096 3096 3095 3095 3095 3096 3096 3096 3096 3096 3096 3096 3096 3096 3096 3097 3098 3100 3101 3101 3102 3103 3104 3104 3104 3105 3105 3105 3106 3106 3108 3109 3110 3111 3112 3113 3114 3115 3116 3117 3118 3119 3120 3121 3121 3122 3122 3123 3124 3125 3125 3125 3126 3126 3127 3128 3129 3129 3129 3130 3131 3132 3133 3133 3134 3134 3134 3135 3135 3136 3136 3137 3137 3137 3137 3137 3138
3101 3101 3100 3099 3098 3097 3097 3096 3096 3096 3096 3096 3096 3095 3095 3096 3096 3096 3096 3096 3096 3096 3096 3096 3097 3097 3098 3099 3100 3101 3102 3103 3103 3104 3104 3105 3105 3105 3106 3106 3107 3109 3110 3111 3112 3113 3114 3115 3115 3116 3117 3118 3119 3120 3121 3121 3122 3122 3123 3124 3124 3124 3124 3125 3126 3126 3127 3127 3128 3128 3129 3130 3131 3132 3132 3133 3133 3133 3134 3134 3135 3135 3136 3136 3137 3137 3137 3137
3102 3101 3101 3100 3099 3098 3097 3096 3096 3096 3096 3096 3096 3096 3096 3096 3096 3096 3096 3096 3096 3096 3096 3097 3097 3098 3098 3099 3101 3102 3102 3103 3104 3104 3104 3105 3105 3105 3106 3107 3108 3110 3111 3112 3113 3113 3114 3114 3115 3116 3117 3118 3119 3120 3120 3121 3122 3122 3123 3123 3123 3124 3124 3124 3125 3125 3126 3126 3127 3128 3128 3129 3130 3130 3131 3131 3132 3132 3133 3133 3134 3134 3135 3136 3136 3136 3136 3136
3102 3102 3101 3101 3099 3098 3097 3097 3096 3096 3096 3096 3096 3096 3096 3096 3096 3097 3096 3096 3096 3096 3097 3097 3098 3099 3100 3101 3102 3102 3103 3103 3104 3104 3104 3105 3105 3106 3107 3108 3110 3111 3112 3112 3113 3113 3114 3115 3115 3116 3117 3118 3119 3120 3120 3121 3121 3122 3122 3122 3122 3123 3123 3123 3124 3125 3125 3126 3127 3127 3127 3128 3129 3129 3129 3130 3131 3131 3132 3132 3133 3133 3134 3135 3135 3135 3135 3135
3103 3102 3102 3101 3100 3099 3098 3097 3097 3097 3097 3096 3096 3097 3097 3097 3097 3097 3097 3097 3097 3097 3097 3098 3099 3100 3101 3102 3103 3103 3103 3104 3104 3104 3105 3105 3105 3106 3107 3109 3110 3112 3112 3113 3113 3114 3114 3115 3116 3116 3117 3118 3119 3120 3120 3120 3121 3121 3121 3121 3121 3121 3122 3122 3123 3124 3124 3125 3126 3126 3126 3126 3127 3128 3128 3129 3129 3130 3131 3131 3132 3132 3133 3134 3134 3134 3134 3135
3103 3103 3103 3102 3101 3100 3099 3098 3098 3097 3097 3097 3097 3097 3097 3097 3097 3097 3097 3097 3097 3098 3098 3099 3100 3101 3102 3103 3103 3103 3104 3104 3104 3105 3105 3106 3106 3107 3108 3109 3111 3112 3113 3113 3114 3114 3115 3115 3116 3117 3117 3118 3119 3119 3120 3120 3120 3121 3121 3121 3120 3121 3121 3121 3122 3122 3123 3124 3125 3125 3125 3124 3125 3127 3127 3127 3128 3128 3129 3130 3130 3131 3132 3132 3133 3133 3133 3134
3103 3103 3103 3102 3102 3101 3100 3099 3099 3098 3098 3097 3097 3097 3097 3097 3097 3098 3098 3098 3098 3099 3099 3100 3101 3102 3103 3103 3104 3104 3105 3105 3105 3106 3106 3107 3108 3109 3110 3111 3112 3113 3113 3114 3115 3115 3115 3116 3117 3117 3118 3118 3119 3119 3119 3120 3120 3120 3120 3120 3120 3120 3120 3120 3121 3121 3122 3123 3124 3124 3123 3123 3125 3125 3125 3126 3126 3127 3127 3128 3129 3130 3130 3131 3131 3132 3132 3132
3104 3104 3103 3103 3102 3102 3101 3100 3100 3099 3098 3098 3098 3098 3098 3098 3098 3098 3098 3099 3099 3100 3101 3101 3102 3103 3104 3104 3105 3105 3105 3106 3106 3107 3107 3108 3109 3110 3111 3112 3113 3114 3114 3115 3115 3116 3116 3117 3117 3118 3118 3118 3118 3118 3118 3119 3119 3119 3119 3119 3119 3119 3119 3120 3120 3120 3121 3122 3122 3123 3121 3121 3123 3124 3124 3124 3125 3125 3126 3127 3127 3128 3129 3129 3130 3130 3131 3131
3104 3104 3104 3104 3103 3103 3102 3101 3101 3100 3100 3099 3099 3099 3099 3099 3099 3100 3100 3100 3100 3101 3102 3103 3103 3104 3105 3105 3105 3106 3106 3106 3107 3108 3109 3109 3110 3111 3112 3112 3113 3114 3114 3115 3116 3116 3116 3117 3117 3118 3117 3117 3117 3117 3117 3117 3118 3118 3119 3119 3118 3118 3119 3119 3119 3120 3120 3120 3120 3121 3120 3120 3121 3122 3122 3123 3123 3124 3124 3125 3126 3126 3127 3127 3128 3129 3129 3130
3105 3104 3104 3104 3104 3103 3103 3102 3102 3101 3101 3101 3100 3100 3100 3100 3101 3101 3101 3102 3102 3103 3104 3105 3105 3105 3106 3106 3107 3107 3107 3108 3108 3109 3110 3111 3111 3112 3113 3113 3113 3114 3115 3115 3116 3116 3117 3117 3117 3117 3117 3117 3116 3116 3116 3116 3117 3118 3118 3118 3118 3118 3118 3118 3118 3118 3118 3118 3118 3119 3118 3119 3120 3121 3121 3121 3121 3122 3122 3124 3124 3125 3125 3126 3126 3127 3128 3128
3105 3105 3105 3105 3105 3104 3104 3103 3103 3102 3102 3102 3102 3101 3101 3102 3102 3103 3103 3104 3104 3105 3106 3106 3106 3106 3107 3108 3108 3109 3109 3109 3110 3110 3111 3112 3113 3113 3114 3114 3114 3115 3115 3115 3116 3117 3117 3117 3117 3116 3116 3116 3116 3115 3115 3115 3116 3117 3117 3117 3117 3117 3116 3116 3117 3117 3116 3116 3116 3116 3117 3117 3118 3119 3119 3119 3120 3120 3121 3122 3123 3123 3123 3124 3124 3125 3126 3127
3106 3106 3106 3106 3106 3105 3105 3104 3104 3104 3103 3103 3103 3103 3103 3103 3104 3104 3105 3105 3106 3107 3107 3108 3108 3108 3109 3110 3110 3110 3111 3111 3111 3112 3112 3113 3113 3114 3114 3114 3115 3115 3116 3116 3116 3116 3116 3116 3116 3116 3115 3115 3114 3114 3114 3114 3115 3116 3116 3116 3116 3115 3115 3115 3115 3115 3114 3113 3113 3114 3115 3115 3116 3116 3116 3116 3117 3118 3119 3120 3120 3121 3121 3122 3122 3124 3125 3126
3107 3106 3106 3106 3106 3106 3106 3105 3105 3104 3104 3104 3104 3104 3104 3105 3105 3106 3106 3107 3107 3108 3108 3109 3109 3110 3110 3111 3111 3111 3112 3112 3112 3113 3113 3114 3114 3114 3114 3115 3115 3115 3115 3116 3116 3116 3116 3116 3116 3115 3114 3113 3113 3112 3112 3113 3114 3114 3115 3115 3115 3114 3114 3114 3113 3113 3112 3111 3111 3112 3113 3113 3113 3113 3113 3113 3114 3115 3116 3117 3118 3119 3120 3120 3121 3122 3123 3125
3108 3107 3107 3107 3107 3107 3106 3106 3106 3105 3105 3105 3105 3105 3106 3106 3107 3107 3108 3108 3109 3109 3110 3110 3111 3111 3112 3112 3112 3112 3113 3113 3113 3114 3114 3114 3114 3114 3115 3115 3115 3115 3115 3116 3116 3116 3116 3116 3115 3115 3113 3112 3111 3111 3111 3112 3112 3113 3113 3113 3113 3113 3112 3112 3112 3111 3111 3110 3110 3110 3110 3110 3111 3111 3110 3110 3110 3112 3113 3114 3116 3117 3118 3119 3120 3121 3122 3124
3108 3108 3108 3108 3108 3107 3107 3107 3107 3106 3106 3106 3106 3106 3107 3108 3108 3108 3109 3109 3110 3110 3111 3111 3112 3112 3113 3113 3113 3113 3114 3114 3114 3114 3115 3115 3115 3115 3115 3115 3116 3116 3116 3116 3116 3116 3116 3115 3115 3114 3113 3112 3111 3110 3111 3111 3112 3112 3112 3112 3112 3112 3111 3111 3111 3110 3110 3109 3109 3108 3108 3108 3108 3109 3109 3107 3108 3110 3111 3113 3114 3116 3117 3118 3119 3120 3121 3122
3109 3109 3109 3109 3108 3108 3108 3108 3108 3108 3107 3107 3107 3108 3108 3109 3110 3110 3110 3110 3111 3112 3112 3113 3113 3113 3113 3113 3114 3114 3114 3114 3115 3115 3115 3115 3116 3116 3116 3116 3116 3116 3116 3116 3116 3115 3115 3115 3114 3114 3113 3112 3111 3110 3110 3110 3111 3111 3111 3111 3111 3111 3110 3110 3110 3110 3109 3109 3108 3107 3106 3106 3106 3106 3106 3106 3106 3108 3109 3111 3113 3115 3115 3116 3118 3119 3120 3121
3110 3110 3110 3110 3109 3109 3109 3109 3109 3109 3109 3109 3109 3109 3110 3110 3111 3111 3111 3112 3112 3113 3113 3113 3114 3114 3114 3114 3114 3115 3115 3115 3115 3116 3116 3116 3116 3116 3116 3116 3116 3116 3116 3116 3116 3115 3115 3115 3114 3113 3113 3112 3111 3110 3109 3109 3110 3110 3110 3110 3110 3110 3110 3109 3109 3109 3108 3108 3107 3106 3105 3104 3104 3104 3104 3104 3104 3106 3108 3110 3111 3112 3113 3114 3116 3117 3118 3119
3111 3111 3111 3111 3110 3110 3110 3110 3110 3110 3110 3110 3110 3111 3111 3112 3113 3113 3113 3113 3113 3114 3114 3114 3114 3115 3115 3115 3115 3116 3116 3115 3116 3116 3116 3116 3116 3116 3116 3116 3116 3116 3116 3115 3115 3115 3115 3115 3113 3113 3112 3112 3111 3110 3110 3109 3109 3109 3109 3110 3110 3110 3109 3109 3108 3108 3107 3106 3106 3105 3105 3103 3103 3103 3103 3103 3104 3105 3107 3108 3109 3110 3111 3112 3113 3115 3116 3117
3112 3111 3111 3112 3112 3111 3111 3111 3111 3111 3112 3112 3112 3112 3113 3113 3114 3115 3114 3114 3114 3115 3115 3115 3115 3115 3116 3116 3116 3116 3116 3116 3116 3117 3117 3117 3117 3117 3117 3116 3116 3116 3115 3115 3115 3115 3115 3114 3113 3112 3112 3111 3111 3111 3110 3110 3109 3109 3109 3109 3109 3109 3109 3109 3108 3108 3107 3106 3105 3105 3105 3104 3103 3103 3103 3103 3103 3104 3105 3106 3107 3108 3109 3110 3111 3113 3114 3115
3112 3112 3112 3112 3112 3112 3112 3112 3112 3113 3113 3113 3114 3114 3114 3114 3115 3115 3115 3115 3116 3116 3116 3116 3116 3116 3117 3117 3117 3117 3117 3117 3117 3117 3117 3117 3117 3117 3116 3116 3116 3115 3115 3115 3115 3115 3115 3114 3112 3112 3111 3110 3110 3110 3109 3109 3109 3109 3109 3109 3108 3108 3108 3108 3108 3107 3106 3105 3104 3104 3104 3103 3102 3102 3102 3102 3102 3103 3103 3104 3105 3106 3107 3108 3109 3111 3112 3113
3113 3113 3113 3113 3113 3113 3113 3113 3114 3114 3114 3114 3115 3115 3115 3115 3116 3116 3115 3117 3119 3118 3118 3118 3117 3117 3118 3118 3118 3118 3118 3118 3118 3118 3117 3117 3117 3117 3116 3116 3116 3115 3115 3115 3115 3114 3114 3113 3112 3111 3111 3110 3109 3109 3108 3108 3108 3108 3108 3107 3107 3107 3107 3107 3106 3106 3105 3104 3103 3103 3104 3103 3102 3102 3102 3101 3101 3101 3101 3102 3103 3104 3105 3106 3107 3109 3110 3111
3114 3114 3114 3114 3114 3114 3114 3115 3115 3115 3115 3115 3115 3116 3116 3116 3116 3116 3115 3118 3120 3119 3119 3119 3118 3118 3118 3119 3119 3119 3119 3119 3118 3117 3117 3117 3117 3116 3116 3115 3115 3115 3114 3114 3114 3114 3113 3112 3111 3110 3110 3109 3109 3108 3108 3108 3107 3107 3106 3106 3105 3105 3105 3105 3105 3105 3104 3103 3102 3102 3103 3103 3102 3102 3102 3101 3101 3101 3101 3102 3102 3102 3103 3104 3105 3106 3107 3109
3115 3115 3115 3115 3115 3115 3115 3115 3115 3116 3116 3116 3116 3116 3116 3116 3116 3116 3117 3120 3120 3120 3120 3119 3118 3119 3119 3119 3119 3119 3119 3118 3118 3118 3117 3117 3116 3115 3115 3115 3114 3114 3114 3114 3114 3113 3112 3111 3111 3110 3109 3109 3108 3108 3107 3106 3106 3105 3105 3104 3104 3104 3103 3103 3103 3103 3103 3102 3100 3101 3101 3101 3102 3101 3101 3101 3101 3101 3102 3102 3102 3102 3103 3103 3103 3104 3105 3106
3115 3116 3116 3116 3116 3116 3116 3116 3116 3116 3116 3116 3116 3117 3117 3117 3116 3117 3119 3121 3120 3120 3120 3119 3119 3119 3119 3119 3119 3119 3119 3118 3118 3117 3117 3116 3115 3115 3114 3113 3113 3113 3113 3113 3112 3112 3112 3111 3110 3109 3109 3108 3107 3107 3106 3105 3104 3104 3103 3102 3102 3102 3102 3101 3101 3101 3102 3100 3099 3099 3099 3100 3101 3101 3101 3101 3101 3101 3101 3101 3101 3102 3103 3103 3103 3103 3104 3104
3116 3116 3117 3117 3117 3116 3116 3116 3116 3116 3116 3117 3117 3117 3117 3117 3117 3118 3120 3121 3121 3121 3121 3120 3119 3119 3119 3119 3119 3119 3118 3118 3118 3117 3116 3116 3115 3114 3114 3113 3112 3112 3111 3111 3111 3111 3111 3111 3110 3109 3108 3106 3105 3104 3103 3103 3102 3102 3101 3101 3102 3103 3103 3101 3100 3100 3101 3099 3099 3099 3099 3099 3100 3100 3100 3100 3099 3099 3099 3100 3100 3101 3102 3103 3103 3103 3103 3103
3117 3117 3117 3117 3117 3117 3117 3117 3117 3116 3117 3117 3117 3117 3117 3117 3119 3120 3120 3120 3121 3121 3121 3120 3120 3119 3119 3119 3119 3119 3119 3118 3118 3117 3116 3116 3115 3114 3114 3114 3113 3112 3112 3111 3111 3110 3110 3110 3109 3108 3107 3106 3104 3103 3101 3101 3100 3100 3100 3100 3101 3104 3106 3105 3103 3101 3100 3099 3099 3099 3099 3098 3098 3099 3099 3099 3098 3098 3098 3098 3099 3100 3101 3101 3102 3102 3102 3102
3118 3118 3118 3118 3118 3117 3117 3117 3117 3116 3116 3117 3117 3117 3117 3118 3120 3120 3120 3121 3121 3121 3121 3121 3120 3120 3119 3119 3119 3119 3119 3119 3118 3117 3116 3116 3115 3115 3114 3114 3113 3113 3113 3112 3111 3110 3110 3109 3108 3107 3106 3106 3105 3103 3102 3101 3100 3099 3099 3100 3100 3102 3104 3105 3104 3103 3102 3100 3099 3099 3099 3098 3098 3098 3098 3098 3097 3097 3097 3097 3098 3098 3099 3099 3099 3100 3100 3100
3118 3118 3118 3118 3118 3118 3118 3117 3117 3117 3116 3116 3116 3117 3117 3118 3120 3120 3121 3121 3121 3121 3121 3121 3121 3120 3120 3120 3120 3119 3119 3119 3118 3117 3116 3115 3115 3115 3114 3114 3114 3113 3112 3112 3111 3111 3111 3110 3109 3108 3107 3106 3105 3103 3102 3101 3100 3099 3099 3100 3100 3100 3101 3102 3103 3104 3104 3102 3100 3099 3099 3099 3098 3098 3098 3098 3097 3097 3097 3097 3096 3097 3097 3097 3097 3096 3096 3097
3119 3118 3118 3118 3118 3118 3118 3118 3117 3117 3116 3116 3116 3117 3117 3118 3119 3120 3120 3121 3121 3121 3121 3121 3121 3121 3120 3120 3120 3119 3119 3119 3118 3117 3116 3116 3116 3115 3115 3114 3114 3113 3113 3112 3112 3111 3111 3110 3109 3109 3107 3106 3105 3103 3102 3101 3100 3100 3099 3099 3100 3100 3100 3101 3102 3102 3103 3104 3101 3098 3098 3098 3098 3098 3098 3097 3097 3097 3096 3095 3095 3096 3096 3096 3095 3094 3094 3093
3119 3119 3119 3119 3119 3118 3118 3118 3117 3116 3115 3115 3116 3117 3118 3119 3119 3120 3120 3120 3120 3121 3121 3121 3120 3120 3120 3120 3120 3119 3119 3119 3118 3117 3117 3116 3116 3116 3115 3115 3114 3114 3113 3113 3113 3112 3111 3109 3108 3108 3107 3105 3104 3103 3101 3100 3100 3100 3100 3100 3100 3100 3100 3100 3101 3102 3103 3103 3100 3098 3098 3098 3097 3097 3097 3097 3096 3096 3095 3094 3094 3094 3094 3094 3094 3093 3093 3092
3119 3119 3119 3120 3120 3119 3119 3118 3117 3116 3116 3116 3117 3118 3119 3119 3120 3120 3120 3120 3120 3120 3120 3120 3120 3120 3120 3120 3119 3118 3118 3118 3118 3117 3117 3116 3116 3115 3115 3115 3115 3114 3113 3113 3113 3112 3111 3109 3108 3108 3106 3104 3103 3102 3101 3100 3100 3100 3100 3100 3099 3099 3099 3100 3101 3101 3101 3102 3100 3097 3097 3097 3097 3096 3096 3095 3095 3095 3094 3094 3094 3093 3093 3093 3093 3092 3091 3090
3120 3120 3120 3120 3120 3120 3120 3119 3118 3117 3117 3117 3117 3118 3119 3120 3120 3120 3120 3120 3120 3120 3120 3120 3120 3120 3119 3119 3119 3118 3117 3117 3117 3117 3117 3116 3116 3115 3115 3114 3114 3114 3113 3113 3112 3112 3111 3109 3108 3107 3105 3103 3102 3101 3101 3101 3101 3101 3100 3100 3099 3099 3099 3100 3100 3099 3100 3100 3100 3098 3096 3096 3096 3096 3095 3094 3094 3093 3093 3093 3093 3093 3092 3092 3091 3091 3090 3089
3121 3121 3121 3121 3121 3121 3120 3119 3119 3118 3118 3117 3117 3118 3119 3120 3120 3120 3120 3120 3119 3119 3119 3119 3119 3119 3119 3119 3118 3117 3117 3117 3117 3117 3116 3116 3116 3115 3115 3114 3114 3113 3113 3112 3112 3111 3110 3109 3108 3106 3104 3103 3102 3103 3103 3103 3102 3101 3100 3100 3100 3100 3099 3099 3099 3099 3099 3100 3100 3100 3098 3096 3095 3095 3095 3094 3093 3092 3092 3091 3092 3092 3091 3090 3090 3089 3088 3088
3121 3122 3122 3122 3121 3121 3120 3120 3119 3119 3118 3117 3118 3119 3119 3120 3120 3120 3120 3119 3119 3119 3119 3119 3119 3119 3118 3118 3118 3117 3116 3116 3116 3116 3116 3116 3115 3115 3114 3113 3113 3113 3113 3112 3111 3110 3109 3109 3108 3106 3104 3103 3103 3104 3104 3104 3103 3102 3101 3101 3101 3100 3100 3099 3099 3099 3099 3099 3099 3099 3098 3095 3095 3095 3094 3094 3093 3092 3091 3090 3090 3089 3089 3089 3088 3087 3087 3086
3122 3122 3122 3122 3122 3121 3121 3120 3120 3119 3118 3118 3119 3119 3120 3120 3120 3120 3120 3120 3119 3119 3118 3118 3118 3118 3118 3117 3117 3116 3116 3115 3115 3115 3115 3115 3115 3115 3114 3113 3112 3112 3112 3111 3110 3109 3108 3108 3107 3106 3105 3104 3104 3104 3104 3104 3104 3103 3102 3101 3101 3101 3100 3100 3100 3099 3099 3099 3098 3098 3097 3095 3095 3094 3094 3093 3092 3091 3090 3088 3087 3087 3087 3087 3086 3085 3085 3085
3122 3122 3122 3122 3122 3122 3121 3121 3120 3120 3120 3120 3120 3120 3120 3120 3120 3120 3120 3120 3120 3119 3118 3118 3118 3118 3117 3116 3116 3115 3115 3114 3114 3114 3114 3114 3114 3114 3113 3112 3111 3111 3111 3110 3110 3109 3108 3108 3107 3106 3105 3105 3104 3104 3104 3104 3104 3103 3102 3101 3101 3100 3100 3099 3099 3099 3099 3098 3098 3098 3097 3095 3094 3094 3093 3092 3091 3090 3088 3086 3085 3084 3085 3085 3084 3083 3083 3084
3122 3122 3123 3123 3122 3122 3122 3122 3121 3121 3120 3120 3120 3121 3121 3121 3121 3121 3121 3120 3120 3119 3118 3118 3117 3117 3116 3116 3115 3114 3114 3114 3113 3113 3113 3113 3113 3113 3112 3111 3111 3110 3110 3110 3110 3109 3108 3108 3107 3106 3105 3104 3104 3104 3104 3104 3103 3103 3102 3101 3101 3100 3099 3098 3099 3099 3098 3098 3098 3098 3097 3095 3095 3094 3092 3091 3089 3088 3086 3084 3083 3082 3082 3082 3082 3082 3082 3082
3122 3122 3123 3123 3122 3122 3122 3122 3122 3122 3121 3121 3121 3121 3121 3121 3121 3120 3120 3120 3119 3119 3118 3118 3117 3117 3116 3116 3115 3114 3113 3113 3113 3113 3113 3113 3112 3112 3111 3110 3110 3110 3110 3110 3110 3109 3108 3108 3107 3107 3107 3106 3106 3105 3104 3103 3103 3103 3102 3101 3100 3099 3098 3098 3098 3098 3098 3097 3097 3097 3096 3095 3094 3093 3091 3089 3088 3086 3084 3083 3082 3081 3081 3080 3080 3079 3079 3079
3122 3123 3123 3123 3123 3122 3123 3123 3122 3122 3122 3122 3122 3121 3121 3121 3120 3120 3120 3119 3119 3118 3118 3118 3117 3117 3116 3116 3115 3114 3113 3113 3113 3112 3112 3112 3112 3112 3111 3110 3110 3110 3110 3110 3110 3109 3109 3108 3107 3107 3107 3107 3106 3106 3105 3104 3103 3102 3102 3101 3100 3099 3098 3098 3098 3098 3098 3097 3097 3097 3096 3094 3093 3092 3090 3088 3086 3084 3083 3082 3081 3080 3079 3078 3078 3078 3077 3077
3122 3122 3123 3123 3123 3123 3123 3123 3122 3122 3122 3122 3122 3121 3121 3121 3120 3120 3120 3119 3119 3118 3118 3117 3117 3117 3116 3115 3115 3114 3113 3113 3113 3112 3112 3112 3112 3112 3111 3111 3111 3111 3110 3110 3110 3109 3109 3108 3107 3107 3106 3106 3105 3105 3104 3104 3103 3102 3102 3101 3100 3099 3099 3098 3098 3098 3098 3097 3097 3097 3096 3094 3093 3091 3089 3087 3085 3083 3082 3081 3080 3078 3077 3077 3077 3076 3076 3075
3122 3122 3122 3123 3123 3123 3123 3123 3123 3123 3123 3123 3122 3122 3121 3120 3120 3120 3120 3119 3119 3118 3118 3117 3117 3116 3116 3115 3114 3114 3113 3113 3113 3112 3112 3112 3112 3112 3112 3111 3111 3111 3110 3110 3110 3109 3108 3108 3107 3107 3106 3105 3105 3104 3104 3103 3103 3103 3102 3101 3100 3100 3099 3099 3099 3098 3098 3098 3098 3097 3096 3095 3093 3092 3090 3087 3085 3083 3082 3081 3080 3078 3077 3076 3076 3075 3075 3074
3122 3122 3122 3122 3123 3123 3123 3123 3123 3123 3123 3123 3123 3122 3121 3121 3121 3120 3120 3119 3119 3118 3118 3117 3117 3116 3115 3115 3114 3113 3113 3113 3113 3113 3112 3112 3112 3112 3112 3112 3111 3111 3110 3109 3109 3108 3108 3108 3107 3107 3106 3105 3104 3104 3103 3103 3103 3103 3102 3101 3101 3100 3099 3099 3099 3099 3099 3098 3098 3097 3096 3095 3094 3092 3090 3088 3086 3085 3083 3081 3080 3079 3078 3076 3075 3074 3073 3073
3121 3121 3121 3122 3122 3122 3122 3122 3123 3123 3123 3123 3123 3122 3122 3122 3121 3121 3120 3120 3119 3119 3118 3117 3117 3116 3116 3115 3114 3114 3113 3113 3113 3113 3113 3113 3112 3112 3112 3112 3111 3110 3109 3109 3108 3108 3107 3107 3107 3106 3106 3105 3104 3103 3103 3103 3103 3102 3102 3102 3101 3100 3099 3099 3099 3099 3098 3098 3097 3097 3096 3095 3093 3092 3090 3088 3087 3085 3083 3082 3080 3079 3077 3076 3075 3073 3072 3072
3121 3121 3121 3121 3121 3122 3122 3122 3123 3123 3123 3123 3123 3123 3122 3122 3121 3121 3120 3120 3120 3119 3118 3118 3118 3117 3116 3115 3115 3114 3114 3113 3113 3113 3113 3113 3113 3112 3112 3111 3111 3110 3109 3109 3108 3107 3107 3106 3106 3106 3105 3105 3104 3103 3103 3103 3102 3102 3101 3101 3101 3100 3099 3099 3098 3098 3097 3097 3096 3095 3094 3093 3092 3091 3090 3089 3087 3085 3083 3082 3080 3078 3077 3076 3074 3073 3072 3071
3120 3120 3120 3121 3121 3121 3122 3122 3122 3122 3122 3122 3122 3122 3122 3122 3121 3120 3120 3120 3119 3119 3119 3118 3118 3117 3116 3115 3115 3114 3114 3113 3113 3113 3112 3112 3112 3112 3112 3111 3111 3110 3109 3109 3108 3107 3106 3105 3105 3105 3105 3104 3104 3103 3103 3102 3102 3101 3101 3101 3101 3100 3099 3099 3098 3097 3097 3096 3095 3094 3093 3092 3091 3090 3089 3088 3087 3085 3083 3081 3080 3078 3077 3075 3074 3073 3072 3071